Find Starlink 31608

NORAD ID: 59397 Int'l Des: 2024-062 Owner: SPXS Country: US Constellation: starlink operational
LEOCIRCULAR

Current View

Loading 3D Globe...

About Starlink 31608

Starlink 31608 (NORAD 59397) is a starlink constellation satellite (v2 mini) launched Apr 2, 2024 by SPXS of US. It operates in LEO, CIRCULAR orbit with a mass of 730.00 kg.

Upcoming Passes

Passes for default location (London). Set your location on the main map for personalized predictions.

Altitude History

Loading altitude history...

Two-Line Element Set

1 59397U 24062X 26228.43250848 .00000609 00000-0 29175-4 0 9994
2 59397 53.1581 231.9104 0001212 79.5163 280.5977 15.34392618134104
Epoch: Aug 16, 2026 • Age: 28 hours

Current Status

Altitude 475.5 km
Apogee / Perigee N/A
Velocity 7.63 km/s
Sub-Earth Point -37.38°S, 93.97°W
Launch Date Apr 2, 2024
Age 2.3 years
Type internet

Technical Details

Classification Payload
Mass 730.00 kg
Dry Mass 700.00 kg
Total Mass 730.00 kg
Length 0.30 m
Diameter 4.10 m
Span 29.00 m
Shape Box + pan
Manufacturer SPXS
Bus Type Starlink V2M
Phase Status In Orbit
Owner/State SPXS/US

Most Searched